[[{"header":{"parameterUnit":"m.s-1","parameterCategory":1,"la1":30.2991,"la2":30.254,"lo1":-89.0895,"lo2":-89.0444,"dy":0.0017,"dx":0.0017,"nx":28,"ny":28,"refTime":"2023-11-05T09:00:00:Z","depth":0,"parameterNumber":2,"parameterNumberName":"U-component_of_WINDS"},"data":[0,0,0,0,0,0,0,0,0,0,0,0,0,0,0,0,0,0,0,0,0,0,0,0,0,0,0,0,0,0,0,0,0,0,0,0,0,0,0,0,0,0,0,0,0,0,0,0,0,0,0,0,0,0,0,0,0,0,0.9539,0.9539,0,0.952,0.952,0.952,0.9485,0.9484,0.9484,0.9483,0.9464,0.9464,0.9464,0,0,0,0,0,0,0,0,0,0,0,0,0,0.9547,0.9547,0.9539,0.9539,0.9539,0.952,0.952,0.952,0.9485,0.9484,0.9483,0.9483,0.9463,0.9464,0.9464,0,0,0,0,0,0,0,0,0,0,0,0,0,0.9537,0.9547,0.9539,0.9519,0.9517,0.952,0.952,0.9519,0.9485,0.9484,0.9483,0.9482,0.9463,0.9464,0.9464,0.9485,0,0,0.9464,0.9464,0,0,0,0,0,0,0,0,0.9538,0.9537,0.9522,0.9521,0.9518,0.9504,0.9515,0.9508,0.9485,0.9497,0.9483,0.9482,0.9478,0.9477,0.9475,0.9484,0.9483,0.9464,0.9464,0.9464,0.9464,0,0,0,0,0,0,0,0.9538,0.9538,0.9532,0.9522,0.952,0.9512,0.9509,0.9514,0.9493,0.9496,0.9494,0.9492,0.9476,0.9475,0.9475,0.9483,0.9464,0.9464,0.9464,0.9465,0.9508,0.9509,0,0,0,0,0,0,0.9542,0.9538,0.9532,0.9531,0.9526,0.9512,0.9509,0.951,0.9493,0.949,0.9493,0.949,0.9475,0.9474,0.9474,0.9498,0.9464,0.9465,0.9465,0.9507,0.9509,0.951,0,0,0,0,0,0,0.9542,0.9542,0.9533,0.9534,0.9532,0.9513,0.9514,0.951,0.9508,0.9491,0.9487,0.9495,0.9475,0.9474,0.9482,0.9497,0.9465,0.9465,0.9506,0.9508,0.9509,0.9546,0,0,0,0,0,0,0.9543,0.9542,0.955,0.9534,0.9532,0.9542,0.9514,0.951,0.9509,0.9505,0.9492,0.9489,0.9474,0.9482,0.9483,0.9496,0.9465,0.9505,0.9507,0.9509,0.9543,0.9549,0.9553,0,0,0,0,0,0.9543,0.956,0.955,0.955,0.9541,0.9543,0.9542,0.9524,0.951,0.9518,0.9506,0.9489,0.9495,0.9484,0.9483,0.9498,0.9504,0.9506,0.9509,0.9541,0.9548,0.9553,0,0,0,0,0,0,0.9577,0.9558,0.9546,0.9559,0.9553,0.9537,0.9546,0.9531,0.9529,0.9526,0.9504,0.9501,0.9513,0.9506,0.9494,0.9517,0.9497,0.9499,0.9522,0.9528,0.9532,0.9534,0.9465,0,0,0,0,0,0.9587,0.9589,0.9572,0.9585,0.9583,0.9565,0.9565,0.9552,0.9545,0.9542,0.9531,0.9525,0.9525,0.9526,0.9525,0.9542,0.9539,0.9552,0.9557,0.9561,0.9563,0.9573,0.9579,0.9518,0.9518,0.9518,0,0,0.9606,0.9595,0.9598,0.9592,0.9586,0.9589,0.9563,0.9568,0.957,0.9542,0.955,0.9543,0.9534,0.9547,0.9553,0.9542,0.958,0.9564,0.9567,0.9568,0.9576,0.9582,0.9587,0.9519,0.9519,0.9519,0,0,0.9642,0.9634,0.9645,0.9639,0.963,0.9618,0.9621,0.9607,0.9601,0.9608,0.9588,0.9591,0.9592,0.9587,0.9584,0.962,0.9605,0.9621,0.9646,0.9656,0.9661,0.9665,0.9678,0.9684,0.9623,0.9623,0.9623,0,0.9667,0.9671,0.9652,0.9658,0.9657,0.9632,0.9643,0.9638,0.9629,0.9629,0.9617,0.9618,0.9611,0.9623,0.9632,0.9631,0.9634,0.9622,0.9661,0.9665,0.9669,0.9682,0.9687,0.9625,0.9625,0.9625,0.9625,0,0.9702,0.9706,0.9716,0.9708,0.9707,0.9716,0.9699,0.97,0.9688,0.9678,0.9686,0.9676,0.9674,0.9676,0.9663,0.9687,0.968,0.9665,0.9644,0.9677,0.9689,0.9694,0.9628,0.9628,0.9627,0.9626,0,0,0.976,0.9742,0.9746,0.9743,0.9731,0.9734,0.9741,0.9739,0.9741,0.9736,0.9743,0.9745,0.9731,0.9728,0.9715,0.9724,0.9754,0.9707,0.9707,0.9717,0.978,0.9792,0.9798,0.9743,0.9744,0.9745,0.9781,0,0.9794,0.9806,0.979,0.9806,0.981,0.9787,0.9794,0.9788,0.9778,0.978,0.977,0.9772,0.9753,0.9752,0.9759,0.9749,0.9766,0.9746,0.975,0.975,0.9753,0.9804,0.9817,0.9852,0.9786,0.9786,0.9787,0,0.9836,0.9833,0.985,0.9838,0.9839,0.9846,0.9843,0.9845,0.9838,0.983,0.9828,0.9813,0.982,0.98,0.981,0.9797,0.9797,0.9793,0.9794,0.9794,0.9771,0.9807,0.9862,0.9868,0.9794,0.9793,0.9793,0,0.9877,0.9878,0.9888,0.9886,0.9872,0.9877,0.9872,0.9864,0.9864,0.9862,0.9862,0.986,0.9859,0.9859,0.9844,0.983,0.9857,0.9834,0.9851,0.9852,0.9858,0.9858,0.9916,0.9858,0.9858,0.9858,0.9858,0,0.9918,0.9929,0.9907,0.9913,0.9925,0.9906,0.9919,0.9911,0.9905,0.991,0.9889,0.9895,0.9874,0.9877,0.9865,0.9876,0.9876,0.9871,0.9868,0.9873,0.9874,0.9874,0.9871,0.9859,0.9859,0.9858,0.9858,0,0.9966,0.9951,0.9961,0.9948,0.9945,0.9954,0.9943,0.9949,0.9938,0.9945,0.9946,0.9929,0.9932,0.9917,0.9917,0.9909,0.9926,0.9919,0.9929,0.9927,0.9945,0.9944,1.0005,1.0012,0.9949,0.995,0.995,0,0.9993,1.0001,0.9989,0.9991,0.9987,0.999,0.999,0.9972,0.9973,0.9966,0.9973,0.9974,0.9974,0.998,0.9968,0.9968,0.9961,0.9983,0.9961,0.9967,0.9963,0.9963,0.9964,0.9987,0.9988,0.9989,0.9989,0,1.0043,1.0036,1.0037,1.0035,1.0036,1.0034,1.0031,1.0034,1.0014,1.0017,1.0019,1.0019,1.002,1.0021,1.0019,1.0014,0.9999,0.9996,1.0,1.0006,1.0012,1.001,0.9942,0.9995,0.9994,0.9994,0.9993,0.9993,1.0082,1.0089,1.0082,1.0084,1.008,1.0077,1.0082,1.0073,1.0075,1.0074,1.0063,1.0068,1.0061,1.0057,1.0054,1.0058,1.0048,1.0053,1.0055,1.0057,1.0061,1.0011,1.0057,1.0057,1.0057,1.0057,1.0056,0,1.0132,1.0127,1.0129,1.0125,1.0127,1.0112,1.0108,1.0111,1.0115,1.0111,1.0111,1.0115,1.0117,1.0106,1.0106,1.0112,1.0105,1.0112,1.0112,1.0112,1.0069,1.0066,1.0118,1.0118,1.0118,1.0118,1.0118,1.0118,1.0159,1.017,1.0161,1.017,1.0165,1.0169,1.0169,1.0167,1.0163,1.0168,1.0169,1.0162,1.0155,1.0155,1.0157,1.0153,1.0155,1.0165,1.016,1.012,1.0114,1.0109,1.0106,1.0166,1.0166,1.0202,1.0202,1.0203]},{"header":{"parameterUnit":"m.s-1","parameterCategory":1,"la1":30.2991,"la2":30.254,"lo1":-89.0895,"lo2":-89.0444,"dy":0.0017,"dx":0.0017,"nx":28,"ny":28,"refTime":"2023-11-05T09:00:00:Z","depth":0,"parameterNumber":3,"parameterNumberName":"V-component_of_WINDS"},"data":[0,0,0,0,0,0,0,0,0,0,0,0,0,0,0,0,0,0,0,0,0,0,0,0,0,0,0,0,0,0,0,0,0,0,0,0,0,0,0,0,0,0,0,0,0,0,0,0,0,0,0,0,0,0,0,0,0,0,-2.6616,-2.6617,0,-2.675,-2.6751,-2.6753,-2.6766,-2.6765,-2.6763,-2.6762,-2.6898,-2.6903,-2.6907,0,0,0,0,0,0,0,0,0,0,0,0,0,-2.6372,-2.6376,-2.6616,-2.6617,-2.6619,-2.6749,-2.6751,-2.6753,-2.6766,-2.6765,-2.6763,-2.6761,-2.6896,-2.6902,-2.6908,0,0,0,0,0,0,0,0,0,0,0,0,0,-2.6489,-2.6377,-2.6615,-2.6641,-2.6645,-2.6749,-2.6751,-2.6754,-2.6767,-2.6765,-2.6762,-2.6761,-2.6894,-2.6901,-2.6909,-2.6996,0,0,-2.6931,-2.6934,0,0,0,0,0,0,0,0,-2.6482,-2.6498,-2.6636,-2.664,-2.6644,-2.6739,-2.6715,-2.6835,-2.6767,-2.672,-2.6762,-2.676,-2.6847,-2.6858,-2.6887,-2.7002,-2.7008,-2.6932,-2.6936,-2.6939,-2.6942,0,0,0,0,0,0,0,-2.6474,-2.6492,-2.6669,-2.6638,-2.6643,-2.6646,-2.6661,-2.6738,-2.6793,-2.6724,-2.6726,-2.6741,-2.6848,-2.688,-2.6891,-2.701,-2.6932,-2.6938,-2.6943,-2.6946,-2.7203,-2.7205,0,0,0,0,0,0,-2.6461,-2.6485,-2.6664,-2.6673,-2.6556,-2.6652,-2.6668,-2.6711,-2.6793,-2.6803,-2.6743,-2.6742,-2.6869,-2.6882,-2.6895,-2.7003,-2.6939,-2.6946,-2.6951,-2.72,-2.7203,-2.7206,0,0,0,0,0,0,-2.6456,-2.6477,-2.6659,-2.6579,-2.6603,-2.6659,-2.6706,-2.6714,-2.6746,-2.6807,-2.6817,-2.6765,-2.6868,-2.6885,-2.6971,-2.7008,-2.695,-2.6956,-2.7197,-2.7201,-2.7205,-2.7218,0,0,0,0,0,0,-2.6449,-2.6475,-2.6508,-2.658,-2.6607,-2.6732,-2.6708,-2.6719,-2.6759,-2.6758,-2.683,-2.684,-2.6867,-2.696,-2.6978,-2.7017,-2.6962,-2.7194,-2.7199,-2.7203,-2.7214,-2.7221,-2.7227,0,0,0,0,0,-2.644,-2.6507,-2.651,-2.6532,-2.665,-2.6734,-2.675,-2.678,-2.6762,-2.6796,-2.6835,-2.6838,-2.7001,-2.6968,-2.6989,-2.7031,-2.7192,-2.7198,-2.7203,-2.7211,-2.722,-2.7227,0,0,0,0,0,0,-2.6437,-2.6516,-2.6521,-2.6613,-2.6667,-2.6736,-2.678,-2.6788,-2.6848,-2.6845,-2.6879,-2.6895,-2.698,-2.7014,-2.6976,-2.7119,-2.7095,-2.7104,-2.7094,-2.7103,-2.7109,-2.7099,-2.6968,0,0,0,0,0,-2.6448,-2.651,-2.6575,-2.665,-2.6677,-2.6724,-2.6762,-2.678,-2.6837,-2.686,-2.6905,-2.6961,-2.7024,-2.7065,-2.7127,-2.7219,-2.7235,-2.7258,-2.7265,-2.727,-2.7278,-2.7329,-2.734,-2.7224,-2.7224,-2.7224,0,0,-2.6469,-2.652,-2.6557,-2.6651,-2.6695,-2.6758,-2.6743,-2.681,-2.6858,-2.687,-2.6954,-2.6989,-2.7053,-2.7142,-2.7184,-2.7173,-2.7314,-2.7277,-2.728,-2.7286,-2.7336,-2.7347,-2.7357,-2.7227,-2.7227,-2.7226,0,0,-2.6541,-2.6586,-2.6653,-2.6697,-2.6764,-2.6796,-2.6812,-2.6881,-2.6905,-2.6989,-2.7,-2.7057,-2.7166,-2.7211,-2.7248,-2.7337,-2.7342,-2.7357,-2.7391,-2.7441,-2.745,-2.7458,-2.749,-2.7501,-2.7364,-2.7365,-2.7365,0,-2.6559,-2.6655,-2.6686,-2.6754,-2.6795,-2.681,-2.6878,-2.692,-2.7003,-2.7031,-2.7018,-2.7156,-2.72,-2.73,-2.7322,-2.7351,-2.7371,-2.7348,-2.7446,-2.7455,-2.7463,-2.7494,-2.7506,-2.7366,-2.7366,-2.7366,-2.7365,0,-2.6674,-2.6741,-2.6787,-2.6868,-2.6914,-2.6982,-2.7023,-2.7066,-2.7081,-2.7114,-2.72,-2.7253,-2.7326,-2.7352,-2.7366,-2.7454,-2.7446,-2.7439,-2.7415,-2.7475,-2.7505,-2.7517,-2.7368,-2.7367,-2.7367,-2.7366,0,0,-2.6747,-2.6845,-2.6862,-2.6899,-2.6974,-2.7026,-2.7094,-2.7166,-2.7203,-2.726,-2.7318,-2.741,-2.7405,-2.7447,-2.7467,-2.7511,-2.7579,-2.7499,-2.7501,-2.7512,-2.7679,-2.7683,-2.7696,-2.7583,-2.7585,-2.7587,-2.7674,0,-2.6828,-2.695,-2.698,-2.7085,-2.7147,-2.7162,-2.7222,-2.7274,-2.7307,-2.7364,-2.7399,-2.7464,-2.7452,-2.7478,-2.7522,-2.7561,-2.7613,-2.7555,-2.7637,-2.7639,-2.762,-2.7712,-2.7717,-2.7796,-2.7685,-2.7687,-2.7689,0,-2.6937,-2.6997,-2.7108,-2.7176,-2.7203,-2.7256,-2.7324,-2.7379,-2.7439,-2.7459,-2.7507,-2.7523,-2.7595,-2.7568,-2.7667,-2.7627,-2.7663,-2.7687,-2.7691,-2.7699,-2.7667,-2.7723,-2.7822,-2.7833,-2.7707,-2.7706,-2.7704,0,-2.6979,-2.7088,-2.7169,-2.72,-2.7281,-2.7318,-2.7353,-2.7411,-2.7453,-2.7513,-2.754,-2.7607,-2.7644,-2.7696,-2.773,-2.7707,-2.7827,-2.7802,-2.7845,-2.7845,-2.7869,-2.7867,-2.7975,-2.7893,-2.7892,-2.7892,-2.7892,0,-2.7066,-2.7133,-2.7189,-2.7238,-2.7314,-2.7348,-2.7422,-2.7458,-2.751,-2.7566,-2.7584,-2.7636,-2.7678,-2.7736,-2.7763,-2.7842,-2.7858,-2.7877,-2.7883,-2.7875,-2.7873,-2.7898,-2.7894,-2.7895,-2.7895,-2.7894,-2.7893,0,-2.7125,-2.7166,-2.7254,-2.7324,-2.7343,-2.7396,-2.7455,-2.7504,-2.7537,-2.7608,-2.7627,-2.7679,-2.7749,-2.7788,-2.7875,-2.7893,-2.7981,-2.7984,-2.796,-2.7963,-2.8004,-2.8,-2.8132,-2.8151,-2.8056,-2.8057,-2.8057,0,-2.7177,-2.723,-2.7305,-2.7344,-2.738,-2.7443,-2.7486,-2.7522,-2.7566,-2.7639,-2.7678,-2.7749,-2.7808,-2.7918,-2.7964,-2.8031,-2.8036,-2.8078,-2.8046,-2.8037,-2.8037,-2.8033,-2.8039,-2.8083,-2.8084,-2.8085,-2.8085,0,-2.7266,-2.7283,-2.7344,-2.7412,-2.7463,-2.7518,-2.7573,-2.7604,-2.7649,-2.7697,-2.7769,-2.7815,-2.7904,-2.7974,-2.8045,-2.8082,-2.8091,-2.8095,-2.8109,-2.8101,-2.8085,-2.8094,-2.7975,-2.8092,-2.8091,-2.8091,-2.809,-2.809,-2.7324,-2.7371,-2.7431,-2.7498,-2.7544,-2.7595,-2.7644,-2.7683,-2.7744,-2.782,-2.7837,-2.7913,-2.7972,-2.8069,-2.8107,-2.8167,-2.8159,-2.8178,-2.8183,-2.8188,-2.8189,-2.8076,-2.818,-2.8179,-2.8179,-2.8179,-2.8179,0,-2.7413,-2.7453,-2.7514,-2.759,-2.7644,-2.7648,-2.771,-2.7753,-2.782,-2.7874,-2.7932,-2.8015,-2.8083,-2.8134,-2.8204,-2.8242,-2.8248,-2.8259,-2.8256,-2.8264,-2.8192,-2.8173,-2.8252,-2.8252,-2.8252,-2.8252,-2.8252,-2.8252,-2.7465,-2.7545,-2.757,-2.7673,-2.7712,-2.7787,-2.7821,-2.7868,-2.7912,-2.8003,-2.806,-2.8093,-2.8147,-2.8221,-2.8284,-2.8297,-2.8322,-2.8332,-2.8346,-2.8277,-2.8269,-2.8262,-2.8244,-2.8337,-2.8337,-2.8413,-2.8414,-2.8414]}]]